Las Vegas, NV

1:02 PM PDT on April 24, 2017 (GMT -0700)
McCarran International

Weather History for KLAS - June, 2013

Change the Weather History Date:

Saturday, June 15, 2013

  Actual Average Record
Temperature  
Mean Temperature 89 °F 87 °F  
Max Temperature 102 °F 99 °F 116 °F (1940)
Min Temperature 75 °F 75 °F 52 °F (1962)
Degree Days  
Heating Degree Days 0 0  
Month to date heating degree days 0 0  
Since 1 June heating degree days 0 0  
Since 1 July heating degree days 1757 1950  
Cooling Degree Days 24 22  
Month to date cooling degree days 404 292  
Year to date cooling degree days 1094 842  
Since 1 June cooling degree days 404 292  
Growing Degree Days 38 (Base 50)    
Moisture  
Dew Point 5 °F    
Average Humidity 6    
Maximum Humidity 9    
Minimum Humidity 2    
Precipitation  
Precipitation 0.00 in 0.00 in 0.00 in (2017)
Month to date precipitation 0.00 0.04  
Year to date precipitation 0.61 2.05  
Snow  
Snow 0.00 in 0.00 in 0.00 in ()
Month to date snowfall 0.0 0.0  
Since 1 June snowfall 0.0 0.0  
Since 1 July snowfall T 0.3  
Snow Depth 0.00 in    
Sea Level Pressure  
Sea Level Pressure 29.68 in    
Wind  
Wind Speed 12 mph (SSW)    
Max Wind Speed 23 mph    
Max Gust Speed 35 mph    
Visibility 10 miles    
Events      
T = Trace of Precipitation, MM = Missing Value Source: NWS Daily Summary

Daily Weather History Graph

Daily Weather History Graph

Search for Another Location

Airport or City:

Trip Planner

Search our weather history database for the weather conditions in past years. The results will help you decide how hot, cold, wet, or windy it might be!

Date:

Astronomy

Jun. 15, 2013 Rise Set
Actual Time 5:23 AM PDT 7:59 PM PDT
Civil Twilight 4:52 AM PDT 8:29 PM PDT
Nautical Twilight 4:15 AM PDT 9:07 PM PDT
Astronomical Twilight 3:33 AM PDT 9:49 PM PDT
Moon 11:51 AM PDT (6/15) No Moon Set
Length of Visible Light 15h 36m
Length of Day
14h 36m
Waxing Crescent, 40% of the Moon is Illuminated
Jun 15
Waxing Crescent
Jun 16
First Quarter
Jun 23
Full
Jun 29
Last Quarter
Jul 8
New

Hourly Weather History & Observations

Time (PDT) Temp. Dew Point Humidity Pressure Visibility Wind Dir Wind Speed Gust Speed Precip Events Conditions
12:56 AM 82.0 °F 3.0 °F 5% 29.64 in 10.0 mi SSW 10.4 mph - N/A   Clear
1:56 AM 81.0 °F 6.1 °F 6% 29.65 in 10.0 mi SW 10.4 mph - N/A   Clear
2:56 AM 80.1 °F 7.0 °F 6% 29.65 in 10.0 mi South 5.8 mph - N/A   Clear
3:56 AM 78.1 °F 8.1 °F 7% 29.65 in 10.0 mi SW 5.8 mph - N/A   Clear
4:56 AM 80.1 °F 8.1 °F 6% 29.66 in 10.0 mi South 16.1 mph - N/A   Partly Cloudy
5:56 AM 75.9 °F 10.9 °F 8% 29.69 in 10.0 mi SSW 4.6 mph - N/A   Partly Cloudy
6:56 AM 79.0 °F 16.0 °F 9% 29.71 in 10.0 mi South 9.2 mph - N/A   Partly Cloudy
7:56 AM 82.9 °F 18.0 °F 9% 29.72 in 10.0 mi South 6.9 mph - N/A   Clear
8:56 AM 87.1 °F 17.1 °F 8% 29.73 in 10.0 mi SSE 10.4 mph - N/A   Clear
9:56 AM 91.0 °F 18.0 °F 7% 29.73 in 10.0 mi Variable 6.9 mph - N/A   Partly Cloudy
10:56 AM 93.9 °F 6.1 °F 4% 29.73 in 10.0 mi South 15.0 mph - N/A   Partly Cloudy
11:56 AM 97.0 °F 3.9 °F 4% 29.72 in 10.0 mi South 16.1 mph 23.0 mph N/A   Partly Cloudy
12:56 PM 100.0 °F -2.9 °F 4% 29.70 in 10.0 mi SSW 20.7 mph 31.1 mph N/A   Partly Cloudy
1:56 PM 100.0 °F -2.0 °F 4% 29.68 in 10.0 mi SSW 16.1 mph 29.9 mph N/A   Partly Cloudy
2:56 PM 100.9 °F -0.0 °F 4% 29.66 in 10.0 mi SW 16.1 mph 27.6 mph N/A   Scattered Clouds
3:56 PM 100.9 °F 1.0 °F 4% 29.65 in 10.0 mi WSW 16.1 mph 33.4 mph N/A   Partly Cloudy
4:56 PM 99.0 °F -2.0 °F 4% 29.65 in 10.0 mi WSW 10.4 mph 25.3 mph N/A   Partly Cloudy
5:56 PM 99.0 °F -5.1 °F 4% 29.65 in 10.0 mi SW 17.3 mph - N/A   Clear
6:56 PM 97.0 °F -2.9 °F 4% 29.65 in 10.0 mi WSW 19.6 mph 26.5 mph N/A   Clear
7:56 PM 93.9 °F -0.0 °F 4% 29.66 in 10.0 mi SW 16.1 mph - N/A   Clear
8:56 PM 91.9 °F 3.0 °F 4% 29.67 in 10.0 mi SW 10.4 mph - N/A   Clear
9:56 PM 88.0 °F 5.0 °F 4% 29.69 in 10.0 mi SSW 11.5 mph - N/A   Clear
10:56 PM 86.0 °F 8.1 °F 5% 29.70 in 10.0 mi SSW 10.4 mph - N/A   Clear
11:56 PM 82.0 °F 8.1 °F 6% 29.70 in 10.0 mi South 8.1 mph - N/A   Clear